Regional Weather Roundup
Issued by NWS

Home | Current Version | Previous Version | Text Only | Print | Product List | Glossary On
Versions: 1 2 3 4 5 6 7 8 9 10 11 12 13 14 15 16 17 18 19 20 21 22 23 24 25 26 27 28 29 30 31 32 33 34 35 36 37 38 39 40 41 42 43 44 45 46 47 48 49 50
000
ASUS43 KDMX 060606
RWRIA

WEATHER ROUNDUP FOR IOWA
NATIONAL WEATHER SERVICE DES MOINES IA
1200 AM CST TUE DEC 06 2016

NOTE: "FAIR" INDICATES FEW OR NO CLOUDS BELOW 12,000 FEET WITH NO
SIGNIFICANT WEATHER AND/OR OBSTRUCTIONS TO VISIBILITY.

* - THESE STATIONS ARE NOT NWS STATIONS...THUS NOT UNDER NWS
QUALITY CONTROL.  THEY ALSO DO NOT REPORT WEATHER SUCH
AS PRECIPITATION OR FOG.

IAZ001>003-012>014-020>022-031>034-043>046-060700-
   NORTHWEST IOWA

CITY           SKY/WX    TMP DP  RH WIND       PRES   REMARKS
CARROLL *      CLOUDY    34  30  86 NW13G21   29.80R WCI  25
CHEROKEE *     CLOUDY    30  24  79 NW14      29.82R WCI  20
DENISON *      CLOUDY    32  27  80 NW18      29.81R WCI  20
LE MARS *      CLOUDY    28  19  69 W26       29.86R WCI  13
ORANGE CITY *  CLOUDY    28  25  86 W25G32    29.80R WCI  14
SHELDON *      CLOUDY    27  21  80 W24G32    29.77R WCI  12
SIOUX CITY     CLOUDY    31  21  66 NW17G31   29.86R WCI  19
6HR MIN TEMP:  31; 6HR MAX TEMP:  45;

SPENCER        CLOUDY    30  24  78 W31G38    29.76R WCI  15
6HR MIN TEMP:  30; 6HR MAX TEMP:  42;

STORM LAKE *   CLOUDY    30  25  80 NW23G30   29.79R WCI  17
$$

IAZ055>058-069>071-079>083-090>094-060700-
   SOUTHWEST IOWA

CITY           SKY/WX    TMP DP  RH WIND       PRES   REMARKS
ATLANTIC *     LGT RAIN  36  32  87 NW15G23   29.82R WCI  26
AUDUBON *      CLOUDY    34  30  86 NW10      29.81R WCI  26
CLARINDA *       N/A     41  37  87 N15G24    29.83R
COUNCIL BLFS * CLOUDY    34  28  80 NW20G26   29.84R WCI  22
CRESTON *      CLOUDY    37  36  93 W15       29.81R WCI  28
HARLAN  *      LGT SNOW  34  30  86 NW20G28   29.86R WCI  22
LAMONI         CLOUDY    34  33  96 SE7       29.78R WCI  28
6HR MIN TEMP:  34; 6HR MAX TEMP:  41;

RED OAK *      CLOUDY    37  34  87 NW8       29.84R WCI  31
SHENANDOAH *   CLOUDY    37  32  81 NW21      29.84R WCI  27
$$

IAZ047>049-059>061-072>074-084-060700-
   CENTRAL IOWA

CITY           SKY/WX    TMP DP  RH WIND       PRES   REMARKS
AMES           CLOUDY    37  37 100 SW6       29.79R WCI  32
6HR MIN TEMP:  37; 6HR MAX TEMP:  42;

ANKENY *       CLOUDY    37 N/A N/A S7        29.80R WCI  32
BOONE *        MIX PCPN  37  37 100 SW9       29.77R WCI  31
CHARITON *       N/A     37  36  93 S9        29.79R WCI  31
DES MOINES     LGT RAIN  39  36  89 S12       29.79R WCI  32
6HR MIN TEMP:  38; 6HR MAX TEMP:  44; 6HR PCP: TRACE;

GRINNELL*      CLOUDY    36  34  94 SE9       29.80F FOG     WCI  29
KNOXVILLE *    CLOUDY    37  36  93 S13       29.78S WCI  29
MARSHALLTOWN   CLOUDY    35  35 100 S12       29.78S FOG     WCI  27
6HR MIN TEMP:  34; 6HR MAX TEMP:  36;

NEWTON *       CLOUDY    37  36  93 S10       29.78F FOG     WCI  30
PELLA *        CLOUDY    38  36  92 S8        29.81S WCI  32
PERRY *        DRIZZLE   38  38  97 NW13      29.79R WCI  31
$$

IAZ004>006-015-016-023>025-035-036-060700-
   NORTH CENTRAL IOWA

CITY           SKY/WX    TMP DP  RH WIND       PRES   REMARKS
ALGONA *       CLOUDY    34  30  86 W13       29.76S WCI  25
CLARION *      CLOUDY    36  36 100 W14       29.77S WCI  27
ESTHERVILLE    CLOUDY    31  27  85 W14G24    29.75R WCI  21
6HR MIN TEMP:  31; 6HR MAX TEMP:  42;

FORT DODGE *   CLOUDY    36  27  69 NW10      29.78S WCI  28
MASON CITY     LGT RAIN  34  33  96 S12       29.77R FOG     WCI  25
6HR MIN TEMP:  34; 6HR MAX TEMP:  35; 6HR PCP:  0.02;

FOREST CITY *  CLOUDY    36  32  87 W8        29.74S WCI  29
WEBSTER CITY * LGT RAIN  36  36 100 W15       29.76R WCI  26
IOWA FALLS *   DRIZZLE   35  34  96 S10       29.78R WCI  27
$$

IAZ007>011-017>019-026>030-037>042-050>054-066-060700-
   NORTHEAST IOWA

CITY           SKY/WX    TMP DP  RH WIND       PRES   REMARKS
CEDAR RAPIDS   CLOUDY    33  33 100 S10       29.83R WCI  25
6HR MIN TEMP:  32; 6HR MAX TEMP:  33;

CHARLES CITY * CLOUDY    32  32 100 S15G22    29.77S FOG     WCI  22
CLINTON *      CLOUDY    32  31  96 SE15      29.86F FOG     WCI  22
DECORAH *      CLOUDY    32  30  93 S15G22    29.78S FOG     WCI  22
DUBUQUE        LGT SNOW  29  28  96 S15       29.84F FOG     WCI  18
6HR MIN TEMP:  29; 6HR MAX TEMP:  32; 6HR PCP: TRACE;

MONTICELLO *   CLOUDY    32  30  93 SE14      29.84S WCI  22
OELWEIN *      CLOUDY    32  32 100 S14       29.80F FOG     WCI  22
WATERLOO       CLOUDY    33  32  96 S13       29.79F FOG     WCI  24
6HR MIN TEMP:  33; 6HR MAX TEMP:  34;

$$

IAZ064-065-067-068-078-060700-
   EAST CENTRAL IOWA

CITY           SKY/WX    TMP DP  RH WIND       PRES   REMARKS
DAVENPORT      CLOUDY    33  31  92 SE7       29.85F WCI  27
6HR MIN TEMP:  32; 6HR MAX TEMP:  33;

IOWA CITY      CLOUDY    35  31  85 SE8       29.87R WCI  29
6HR MIN TEMP:  34; 6HR MAX TEMP:  35;

MUSCATINE *    CLOUDY    36  32  87 SE5       29.84F WCI  32
QUAD CITIES    CLOUDY    35  32  88 SE13      29.84F WCI  26
6HR MIN TEMP:  34; 6HR MAX TEMP:  35;

$$

IAZ062-063-075>077-085>089-095>099-060700-
   SOUTHEAST IOWA

CITY           SKY/WX    TMP DP  RH WIND       PRES   REMARKS
BURLINGTON     CLOUDY    36  34  92 SE10      29.81F WCI  28
6HR MIN TEMP:  35; 6HR MAX TEMP:  36;

FAIRFIELD *    CLOUDY    36  34  93 SE14      29.81F WCI  27
FORT MADISON * CLOUDY    36  34  93 SE12G18   29.81F WCI  27
KEOKUK *       CLOUDY    36  34  93 SE13      29.80F WCI  27
OSKALOOSA *    CLOUDY    36  35  96 S9        29.82S FOG     WCI  29
CENTERVILLE *  CLOUDY    36  36 100 SE8       29.81S WCI  29
OTTUMWA        CLOUDY    37  34  89 S12       29.80F WCI  29
6HR MIN TEMP:  36; 6HR MAX TEMP:  38;

WASHINGTON *   CLOUDY    36  34  93 SE6       29.84F WCI  31
$$

ABBREVIATIONS USED IN REMARKS
   TC - TEMPERATURES IN CELSIUS
  WCI - WIND CHILL INDEX
   HX - HEAT INDEX
  VSB - VISIBILITY
$$




USA.gov is the U.S. government's official web portal to all federal, state and local government web resources and services.